Regional Weather Roundup
Issued by NWS Northern Indiana

Home | Current Version | Previous Version | Graphics & Text | Print | Product List | Glossary On
Versions: 1 2 3 4 5 6 7 8 9 10 11 12 13 14 15 16 17 18 19 20 21 22 23 24 25 26 27 28 29 30 31 32 33 34 35 36 37 38 39 40 41 42 43 44 45 46 47 48 49 50
000
ASUS43 KIWX 290110
RWRIWX

KIWX WEATHER ROUNDUP
NATIONAL WEATHER SERVICE NORTHERN INDIANA
900 PM EDT TUE MAR 28 2017

NOTE: "FAIR" INDICATES FEW OR NO CLOUDS BELOW 12,000 FEET WITH NO
SIGNIFICANT WEATHER AND/OR OBSTRUCTIONS TO VISIBILITY.

* THESE STATIONS ARE NOT UNDER NWS QUALITY CONTROL. THEY ALSO MAY NOT
  REPORT WEATHER SUCH AS PRECIPITATION OR FOG.

INZ001>027-290200-
NORTHERN INDIANA

CITY           SKY/WX    TMP DP  RH WIND       PRES   REMARKS
GARY*          CLOUDY    41  37  87 N10       30.20R
VALPARAISO     CLOUDY    42  39  89 N7        30.18R
MICHIGAN CITY* CLOUDY    37  37 100 N6        30.19R
LAPORTE*       CLOUDY    40  38  92 N7        30.17S
KNOX*          CLOUDY    41  32  70 N5        30.17R
SOUTH BEND     CLOUDY    43  39  86 N7        30.17R
ELKHART*       CLOUDY    46  39  76 NE6       30.17R
GOSHEN         CLOUDY    46  38  73 NE10      30.16R
MONTICELLO*    CLOUDY    44  40  88 N6        30.15R
LOGANSPORT*    CLOUDY    46  43  87 N6        30.15R
ROCHESTER*     CLOUDY    48  45  87 N9        30.15S
WARSAW*        CLOUDY    45  39  81 NE6       30.16R
ANGOLA*        CLOUDY    45  32  61 E7        30.16R
FORT WAYNE     CLOUDY    49  42  77 N9        30.15R
HUNTINGTON*    CLOUDY    48  44  87 N5        30.14R
MARION*        CLOUDY    47  45  93 N6        30.14R

$$
INZ028>050-290200-
CENTRAL INDIANA

CITY           SKY/WX    TMP DP  RH WIND       PRES   REMARKS
LAFAYETTE      CLOUDY    46  42  86 N8        30.15R
KOKOMO*        CLOUDY    48  45  89 NE8       30.15R
MUNCIE*        CLOUDY    50  47  89 NE9       30.13R FOG
INDIANAPOLIS   CLOUDY    52  44  74 N8        30.12R

$$
MIZ043>046-050>051-056>058-064>065-071>073-077>080-290200-
SOUTHWEST LOWER MICHIGAN

CITY           SKY/WX    TMP DP  RH WIND       PRES   REMARKS
BATTLE CREEK   CLEAR     43  36  76 NE3       30.17R
BENTON HARBOR  CLOUDY    39  35  86 VRB3      30.18R
COLDWATER*     CLEAR     41  37  87 NE3       30.17R
HILLSDALE*     CLEAR     39  36  87 CALM      30.16R
HOLLAND        CLEAR     38  35  89 W3        30.18R
GRAND RAPIDS   PTCLDY    44  37  76 S5        30.17R
KALAMAZOO      CLEAR     42  35  76 CALM      30.17S
STURGIS*       CLOUDY    44  39  83 NE10      30.16R
THREE RIVERS*  MOCLDY    44  38  80 NE5       30.18R

$$
OHZ001>008-015>018-024>025-290200-
NORTHWEST OHIO

CITY           SKY/WX    TMP DP  RH WIND       PRES   REMARKS
WAUSEON*       CLOUDY    46  41  81 N8        30.17R
DEFIANCE       CLOUDY    46  39  76 N10       30.17R
FINDLAY        CLOUDY    48  39  71 E9        30.14R
TOLEDO EXPRESS CLOUDY    46  40  79 N9        30.16R
TOLEDO METCALF CLOUDY    47  40  76 CALM      30.16R
LIMA           CLOUDY    47  44  90 NE10      30.13R

$$
AND FOR LAKE MICHIGAN COASTAL AND OPEN LAKE BUOY OBSERVATIONS

STATION/POSITION TEMP    WIND        PRES    VSBY  WAVE
                 AIR SEA DIR/SP/G                  HT/PER
                 (F)     (DEG/KT/KT) (MB)    (MI)  (FT/S)
CALUMET HARBOR    38     340/  9/ 11 1021.7R
MICHIGAN CITY     38      20/  7/  8   N/A
BURNS HARBOR      39      40/  6/  8 1022.7R
SAINT JOSEPH      38      20/  5/  8 1022.7

$$
&&



USA.gov is the U.S. government's official web portal to all federal, state and local government web resources and services.